www.pogodaiklimat.ru

Погода и климат >> Архив погоды >> Россия >> Ростовская область >> Зерноград


ПОГОДА в Зерноград

  • Прогноз погоды в Зерноград
  • Монитор погоды в Зерноград

АРХИВ ПОГОДЫ в Зерноград

Время (UTC), дата Ветер
(напр.,м/с)
 
Видим.   Явления Облачность Т
(С)
Тd
(С)
f
(%)
Тe
(С)
Тes
(С)
Комфортность P
(гПа)
Po
(гПа)
Тmin
(С)
Tmax
(С)
R
(мм)
R24
(мм)
S
(см)
09 19.06 СВ 2 20 км ясно +31.4 +9.6 26 +31 +49 жарко 1011.7 1002.1
12 19.06 С 2 20 км ясно +32.9 +9.3 23 +32 +45 жарко 1010.3 1000.7
15 19.06 СВ 2 20 км ясно +32.1 +8.7 23 +31 +34 жарко 1010.0 1000.4 +33.3
18 19.06 СВ 2 20 км 4/3 1000 м
[Sc Ci fib]
+24.8 +13.4 49 +27 +27 жарко 1010.9 1001.0
21 19.06 СВ 1 20 км 3/0
[Ci fib]
+22.8 +14.1 58 +26 +26 жарко 1011.0 1001.1
00 20.06 СВ 2 20 км 5/5 600 м
[Sc]
+22.5 +14.8 62 +26 +26 жарко 1011.0 1001.1
03 20.06 СВ 2 20 км 4/0
[Ac trans Cc]
+21.7 +14.6 64 +25 +26 комфорт 1011.9 1002.0 +20.7
06 20.06 СВ 3 20 км 3/0
[Ac cast Ci fib]
+28.0 +13.5 41 +30 +37 жарко 1011.8 1002.0
09 20.06 СВ 3 20 км ясно +31.5 +11.0 28 +31 +47 жарко 1010.9 1001.3
12 20.06 СВ 3 20 км 4/3 1000 м
[Cu med, cong Ac cast]
+33.3 +9.3 23 +32 +39 жарко 1010.1 1000.5
15 20.06 СВ 3 20 км ясно +32.4 +8.4 23 +31 +33 жарко 1009.7 1000.1 +33.6
18 20.06 СВ 1 20 км 3/0
[Ac lent]
+27.2 +8.4 31 +27 +27 жарко 1010.6 1000.8
21 20.06 СВ 2 20 км 4/0
[Ac cast]
+25.3 +7.7 33 +25 +25 комфорт 1011.2 1001.4
00 21.06 СВ 2 20 км 3/0
[Ac cast]
+21.9 +9.9 46 +23 +23 комфорт 1011.8 1001.8
03 21.06 СВ 2 20 км 5/0
[Ac cast]
+22.0 +10.2 47 +24 +25 комфорт 1012.6 1002.6 +21.1
06 21.06 В 3 20 км 3/3 600 м
[Cu hum]
+30.4 +10.5 29 +30 +37 жарко 1013.0 1003.3
09 21.06 В 3 20 км 4/4 1000 м
[Cu hum]
+34.1 +8.4 21 +33 +42 жарко 1012.6 1003.0
12 21.06 ЮВ 1 20 км в посл. час ливневой дождь 5/5 600 м
[Cb cap]
+33.7 +10.0 23 +33 +40 жарко 1012.2 1002.6
15 21.06 Ю 1
{15}
20 км {ливн. осадки} [макс. диам. градин 5 мм] 9/5 600 м
[Cb cap As op]
+27.4 +15.1 47 +30 +31 жарко 1012.9 1003.1 +35.3 3
18 21.06 СВ 1 20 км {ливн. осадки} 4/4 1000 м
[Sc]
+23.7 +14.9 58 +27 +27 жарко 1013.2 1003.3
21 21.06 В 2 20 км 3/0
[Ci fib]
+24.2 +10.0 41 +25 +25 комфорт 1013.1 1003.2
00 22.06 В 2 20 км 8/0
[Ac trans Ci]
+22.5 +8.9 42 +24 +24 комфорт 1013.9 1003.9
03 22.06 СВ 1 20 км 8/0
[Ac trans Ci fib]
+23.1 +8.5 39 +24 +25 комфорт 1014.4 1004.5 +20.2
06 22.06 СВ 2 20 км 10/0
[Cc]
+29.6 +10.1 30 +30 +38 жарко 1014.5 1004.7
09 22.06 СВ 3
{11}
20 км 8/4 1000 м
[Cu hum Cc]
+34.4 +5.2 16 +32 +40 жарко 1013.6 1004.0
12 22.06 В 3-11
{11}
20 км 10/5 1000 м
[Cb cap Ac As Ci sp]
+34.1 +4.1 15 +31 +34 жарко 1012.9 1003.3
15 22.06 СВ 2 20 км 10/10 1000 м
[Cb cap]
+32.8 +6.8 20 +31 +31 жарко 1012.4 1002.8 +35.6
18 22.06 СВ 2 20 км 9/5 1000 м
[Cb cap Ac As Ci fib]
+29.5 +6.7 24 +28 +28 жарко 1012.4 1002.7
21 22.06 СВ 2 20 км 8/4 1000 м
[Sc Ac trans]
+26.4 +7.9 31 +26 +26 жарко 1012.3 1002.5
00 23.06 В 2 20 км 9/9 1000 м
[Sc]
+26.2 +5.9 27 +26 +26 жарко 1012.7 1002.8
03 23.06 В 2 20 км 9/4 1000 м
[Cb cap Ac trans Ci fib]
+24.3 +7.8 35 +25 +25 комфорт 1013.3 1003.4 +23.9
06 23.06 В 1 20 км 8/4 1000 м
[Sc diur, vesp Ac cast Cc]
+32.3 +8.2 22 +31 +36 жарко 1013.6 1003.9
09 23.06 ЮВ 2 20 км 8/3 1000 м
[Sc Ac cast Cc]
+36.2 +5.8 15 +34 +42 очень
жарко
1012.6 1003.1
12 23.06 В 3
{10}
20 км 9/4 1000 м
[Cu Sc Ac cast Ci fib]
+36.1 +3.9 13 +33 +37 жарко 1011.2 1001.7
15 23.06 штиль 0 20 км 10/8 1000 м
[Sc Ac cast Ci fib]
+33.9 +8.1 20 +32 +33 жарко 1010.3 1000.7 +37.9
18 23.06 З 2 20 км 10/10 1000 м
[Cb cap]
+28.2 +13.8 41 +30 +30 жарко 1010.8 1001.0
21 23.06 ЮЗ 1
{10}
20 км 8/4 1000 м
[Sc Ci sp]
+25.5 +13.9 49 +28 +28 жарко 1012.3 1002.5
00 24.06 Ю 1 20 км слаб. ливневой дождь 10/10 600 м
[Cb cap]
+23.4 +16.6 66 +28 +28 душно 1013.5 1003.6
03 24.06 ЮВ 3 20 км слаб. ливневой дождь 10/10 1000 м
[Cb cap]
+23.7 +15.7 61 +27 +27 жарко 1013.5 1003.6 +22.0 0.3
06 24.06 ЮВ 1 20 км {ливн. осадки} 10/10 1000 м
[Cb cap]
+24.6 +17.5 65 +29 +29 душно 1014.1 1004.2
09 24.06 СВ 1 20 км 9/9 1000 м
[Sc]
+27.9 +15.2 46 +31 +33 душно 1013.9 1004.2
12 24.06 СВ 1 20 км 8/4 1000 м
[Sc Ac trans Ci fib]
+31.4 +12.8 32 +32 +38 жарко 1013.8 1004.1
15 24.06 В 1 20 км 9/9 1000 м
[Sc]
+29.2 +14.1 40 +31 +32 жарко 1013.8 1004.0 +32.3 0.0
18 24.06 СВ 1 20 км 10/10 600 м
[Cb cap]
+25.5 +15.8 55 +29 +29 душно 1014.3 1004.4
21 24.06 штиль 0 20 км 6/6 1000 м
[Sc]
+22.8 +15.6 64 +27 +27 душно 1014.7 1004.8
00 25.06 штиль 0 20 км 6/6 1000 м
[Sc]
+22.0 +15.5 67 +26 +26 душно 1014.2 1004.2
03 25.06 З 1 20 км 6/0
[Ac trans Ci fib]
+21.7 +15.6 68 +25 +26 комфорт 1014.2 1004.2 +21.1
06 25.06 С 3 20 км 4/3 1000 м
[Sc Cc]
+28.3 +13.2 39 +30 +36 жарко 1014.5 1004.7
09 25.06 С 3 20 км 6/4 1000 м
[Sc Cc]
+29.6 +14.5 40 +32 +40 душно 1015.2 1005.4
12 25.06 С 4-11
{11}
20 км ясно +30.4 +12.5 33 +31 +40 жарко 1015.6 1005.9
15 25.06 СВ 3
{11}
20 км 3/0
[Ci fib]
+27.8 +14.2 43 +30 +32 жарко 1016.8 1007.0 +30.5
18 25.06 С 2 20 км 4/0
[Ac lent Ci sp]
+23.5 +13.8 54 +26 +26 жарко 1017.9 1007.9
21 25.06 СВ 2 20 км 9/9 1000 м
[Sc]
+23.9 +12.1 48 +26 +26 жарко 1018.4 1008.5
00 26.06 СВ 3 20 км 3/3 1000 м
[Sc]
+21.3 +5.1 35 +22 +22 комфорт 1018.8 1008.8
03 26.06 СВ 3 20 км 4/0
[Cc]
+19.8 +6.1 41 +21 +22 комфорт 1019.4 1009.3 +19.4
06 26.06 С 3 20 км ясно +24.6 +7.2 33 +25 +34 комфорт 1019.4 1009.4

 

Местоположение метеостанции Зерноград (Ростовская область, Россия): широта 46.85 долгота 40.32 высота над уровнем моря 86 м.

В архиве по умолчанию представлена погода в Зерноград за последнюю неделю. Архивные данные за месяц целиком и за предыдущие месяцы, начиная с января 2011 года, Вы можете получить, выбрав интересующий диапазон дат из раскрывающегося списка и нажав кнопку "Ввод!".


*Определитесь, кто Вы:
робот инопланетянин человек

Внимание! Время в таблицах - всемирное. Для получения местного времени необходимо прибавить поправку, которая равна 3 ч.

Смотрите также архив погоды в соседних городах и на ближайших метеорологических станциях:

Погода в Ростове-на-Дону (Ростовская область, Россия) (60 км)
Погода в Кущевской (Краснодарский край, Россия) (64 км)
Погода в Аэропорту Платов (Ростовская область, Россия) (77 км)
Погода в Семикаракорске (Ростовская область, Россия) (84 км)
Погода в Гиганте (Ростовская область, Россия) (87 км)
Погода в Сосыке (Краснодарский край, Россия) (88 км)
Погода в Шахтах (Ростовская область, Россия) (95 км)
Погода в Белой Глине (Краснодарский край, Россия) (96 км)
Погода в Константиновске (Ростовская область, Россия) (100 км)
Погода в Староминская (Краснодарский край, Россия) (105 км)

Пояснения к столбцам:

Ветер - указаны скорость ветра в м/с - средняя за 10 мин, порывы в срок и между сроками (в фигурных скобках) и направление, откуда дует ветер: С - северный, СВ - северо-восточный, В - восточный, ЮВ - юго-восточный, Ю - южный, ЮЗ - юго-западный, З - западный, СЗ - северо-западный.
Видимость - горизонтальная дальность видимости в метрах или километрах. При видимости от 1 до 10 км при отсутствии осадков обычно наблюдается дымка, при ухудшении видимости до 1 км и менее - туман. В сухую погоду видимость может ухудшаться дымом, пылью или мглою.
Явления - указаны атмосферные явления, наблюдавшиеся в срок или в последний час перед сроком; фигурными скобками обозначены явления, наблюдавшиеся между сроками (за 1-3 часа до срока); квадратными скобками обозначены град или гололедные отложения с указанием их диаметра в мм.
Облачность - указаны через наклонную черту общая и нижняя облачность в баллах и высота нижней границы облаков в метрах; квадратными скобками обозначены формы облаков: Ci - перистые, Cs - перисто-слоистые, Cc - перисто-кучевые, Ac - высококучевые, As - высокослоистые, Sc - слоисто-кучевые, Ns - слоисто-дождевые, Cu - кучевые, Cb - кучево-дождевые. Подробнее классификацию облаков см. в Атласе облаков (PDF).
T - Температура воздуха - температура, измеренная на высоте 2 м над землей.
Td - Температура точки росы - температура, при понижении до которой содержащийся в воздухе водяной пар достигнет насыщения.
f - Относительная влажность воздуха - влажноcть воздуха, измеренная на высоте 2 м над землей.
Te - Эффективная температура - температура, которую ощущает одетый по сезону человек в тени. Характеристика душности погоды. При расчете учитывается влияние влажности воздуха и скорости ветра на теплоощущения человека.
Tes - Эффективная температура на солнце - температура, которую ощущает человек, с поправкой на солнечный нагрев. Характеристика знойности погоды. Зависит от высоты солнца над горизонтом, облачности и скорости ветра. Ночью, в пасмурную погоду, а также при ветре 12 м/с и более поправка равна нулю.
P - Атмосферное давление - приведенное к уровню моря атмосферное давление.
Po - Атмосферное давление - измеренное на уровне метеостанции атмосферное давление.
Tmin - Минимальная температура - минимум температуры воздуха на высоте 2 м над землей.
Tmax - Максимальная температура - максимум температуры воздуха на высоте 2 м над землей.
R - Количество осадков - Количество выпавших осадков за период времени, мм. При наведении курсора мыши на число - период времени, за который выпало указанное количество осадков.
R24 - Количество осадков - Количество выпавших осадков за 24 часа, мм.
S - Снежный покров - Высота снежного покрова, см. При наведении курсора мыши на число - состояние снежного покрова и степень покрытия местности в баллах.